Location: Wald
(31.7579°N, 86.6655°W)
Time: 00:32:24
(UTC+00:00)

Cosmos 1263 - Pass Details

Date: 14 July 2020
Orbit: 384 x 1341 km, 82.9° (Epoch: 12 August)

Event Time Altitude Azimuth Distance (km) Brightness Sun altitude
Rises 09:06:34 0° 351° (N) 2,272 8.4 -19.3°
Reaches altitude 10° 09:08:28 10° 349° (NNW) 1,435 7.3 -19.0°
Maximum altitude 09:11:28 69° 266° (W) 454 4.1 -18.5°
Enters shadow 09:11:42 65° 232° (SW) 469 4.1 -18.5°
